Lid_Strength_Index
14 13 13 13 13 13 14 12 14 12 12 10 10 11 11 10 11 12 13 13 13 13 13 13 12 12 12 12 11 11 12 12 12 12 12 12 11 11 11 11 11 11 11 10
16 14 13 14 13 13 13 12 13 13 12 11 9 10 11 11 12 13 13 13 13 13 13 13 12 12 12 12 12 12 12 13 12 12 12 12 11 11 11 11 10 10 10 10
16 15 15 15 14 14 12 11 11 14 11 12 13 12 12 12 12 13 13 14 14 13 13 13 13 13 13 12 12 13 13 13 12 12 12 12 11 11 11 11 10 10 10 10
17 16 18 14 13 11 12 11 11 12 11 11 11 11 11 10 11 13 14 14 14 13 14 13 13 13 13 13 13 13 13 13 12 12 12 11 11 11 11 10 11 11 11 11
15 16 15 14 14 13 13 12 11 11 12 13 13 13 15 12 12 13 14 14 14 14 14 14 14 13 13 13 13 13 13 12 12 12 12 11 11 11 11 11 11 11 11 10
15 16 17 13 13 12 11 13 11 11 13 14 13 14 15 14 14 15 14 14 14 14 14 14 14 13 14 13 13 13 12 12 11 11 11 11 11 11 11 10 11 10 10 8
14 14 14 12 12 11 14 13 12 12 14 14 13 12 15 14 15 14 14 14 14 14 14 14 14 13 14 13 13 12 11 11 11 11 11 11 11 10 11 11 10 9 8 7
14 15 16 12 13 13 13 14 13 14 14 15 15 15 15 15 15 15 15 15 15 15 14 14 13 13 13 13 12 11 12 12 11 11 11 11 11 11 10 9 9 8 8 7
14 14 16 15 15 14 14 15 15 15 15 15 16 16 15 15 15 15 15 15 15 14 14 13 13 13 13 12 12 12 12 11 11 11 11 10 11 10 9 8 8 8 8 7
15 17 17 16 15 14 14 15 14 14 14 15 16 15 16 15 15 15 15 15 14 14 14 13 12 12 12 12 11 11 11 11 11 11 11 10 10 8 8 8 8 8 7 8
18 17 16 16 15 15 15 15 15 15 15 15 15 15 15 16 15 15 14 14 14 14 13 13 12 12 11 11 11 11 11 11 11 11 11 10 8 8 8 7 7 8 8 9
15 15 15 17 15 15 15 15 15 15 15 14 14 15 14 15 14 14 14 13 13 13 13 12 12 12 11 10 11 11 12 11 11 11 9 9 8 8 6 6 7 7 8 8
14 13 15 15 14 14 15 15 14 14 14 15 14 14 14 14 14 13 13 13 13 13 12 12 12 11 11 11 11 11 12 11 10 9 8 8 8 9 10 8 8 8 8 8
13 13 15 13 15 14 14 13 13 14 14 14 14 14 14 14 14 14 13 13 13 12 12 12 12 12 11 11 11 11 10 9 9 9 8 8 9 9 10 11 11 10 9 9
12 12 13 14 14 14 14 14 15 15 15 15 14 14 14 14 14 13 13 12 12 12 12 12 12 12 11 11 10 9 9 9 9 8 8 9 9 10 10 11 11 11 10 9
13 14 14 15 15 14 14 14 15 15 15 15 14 14 14 14 13 13 12 12 12 12 12 12 12 11 10 9 9 9 9 8 8 9 9 9 10 10 11 11 11 11 11 11
15 16 15 15 15 15 15 14 14 14 14 14 14 14 13 13 13 12 12 11 11 12 11 11 11 10 9 8 8 9 9 9 9 9 10 10 11 11 11 11 11 11 11 10
13 13 13 14 14 14 14 14 14 14 14 13 13 13 13 13 13 12 12 11 12 11 11 10 9 8 8 8 8 8 9 9 10 10 10 11 10 10 11 11 11 11 11 10
13 14 13 13 13 13 13 13 13 13 13 13 13 13 12 12 12 12 11 12 12 11 10 9 8 8 8 8 8 9 9 10 10 10 11 10 10 10 10 11 11 11 11 11
13 13 13 13 12 12 13 12 12 13 12 12 12 12 12 11 11 11 11 11 10 10 9 8 7 8 8 8 9 9 10 10 11 11 11 10 10 10 10 10 10 11 11 11
13 12 12 12 13 12 12 12 12 12 12 12 12 11 11 10 11 11 11 11 10 9 8 8 8 8 8 8 9 10 10 10 11 11 11 11 10 9 10 10 10 11 11 11
12 12 12 12 12 12 12 11 11 11 11 11 10 10 11 11 11 11 10 11 9 9 8 8 8 8 8 10 10 10 10 11 10 10 10 10 10 10 10 10 10 10 10 10
11 11 12 12 12 12 11 10 10 10 10 10 11 11 11 11 11 11 12 10 9 8 8 8 7 8 9 9 10 10 10 10 10 10 10 10 10 10 10 10 10 10 10 10
11 11 11 11 10 10 11 10 10 10 11 11 10 10 11 11 11 10 10 9 9 8 8 7 8 8 10 10 10 10 10 9 10 10 10 9 9 9 10 10 11 10 10 10
11 11 11 11 11 11 11 11 11 11 11 11 11 11 11 10 11 10 10 9 9 9 9 9 9 10 9 9 9 10 10 9 9 10 10 10 10 11 10 11 11 10 10 10
12 11 11 11 11 11 11 11 12 11 12 12 12 11 11 10 10 9 9 9 10 9 10 10 10 9 9 9 9 10 10 10 9 10 10 10 10 10 11 11 11 11 10 10
12 10 11 11 11 11 11 11 12 12 12 12 12 11 11 10 10 9 10 10 10 11 11 10 9 9 9 9 10 10 10 10 10 9 10 10 10 10 11 11 10 10 10 10